Hourly Weather Homutsk

Today, 17 April, Saturday

Time Temperature Precipitation Wind Pressure Humidity
00:00 +13°C° 0.3 mm 2 mps 754 mmHg 86%
01:00 +12°C° 0 mm 2 mps 754 mmHg 87%
02:00 +12°C° 0 mm 2 mps 754 mmHg 88%
03:00 +10°C° 0 mm 2 mps 754 mmHg 85%
04:00 +10°C° 0 mm 2 mps 754 mmHg 85%
05:00 +10°C° 0 mm 3 mps 754 mmHg 85%
06:00 +10°C° 0 mm 3 mps 754 mmHg 85%
07:00 +11°C° 0.1 mm 4 mps 754 mmHg 83%
08:00 +12°C° 0.1 mm 4 mps 754 mmHg 81%
09:00 +13°C° 0.1 mm 5 mps 754 mmHg 78%
10:00 +14°C° 0 mm 5 mps 754 mmHg 72%
11:00 +15°C° 0 mm 6 mps 754 mmHg 66%
12:00 +16°C° 0 mm 6 mps 754 mmHg 60%
13:00 +17°C° 0.2 mm 6 mps 753 mmHg 58%
14:00 +19°C° 0.2 mm 6 mps 753 mmHg 55%
15:00 +19°C° 0.2 mm 6 mps 752 mmHg 53%
16:00 +16°C° 2.1 mm 5 mps 753 mmHg 63%
17:00 +14°C° 2.1 mm 5 mps 753 mmHg 73%
18:00 +12°C° 2.1 mm 5 mps 753 mmHg 83%
19:00 +11°C° 1.5 mm 3 mps 753 mmHg 86%
20:00 +12°C° 1.5 mm 2 mps 753 mmHg 89%
21:00 +11°C° 1.5 mm 1 mps 753 mmHg 92%
22:00 +9°C° 1.8 mm 2 mps 753 mmHg 93%
23:00 +9°C° 1.8 mm 2 mps 753 mmHg 93%

Tomorrow, 18 April, Sunday

Time Temperature Precipitation Wind Pressure Humidity
00:00 +9°C° 1.8 mm 3 mps 753 mmHg 93%
01:00 +8°C° 2.1 mm 2 mps 754 mmHg 93%
02:00 +8°C° 2.1 mm 2 mps 754 mmHg 93%
03:00 +8°C° 2.1 mm 2 mps 754 mmHg 93%
04:00 +7°C° 1 mm 2 mps 754 mmHg 93%
05:00 +8°C° 1 mm 1 mps 754 mmHg 92%
06:00 +8°C° 1 mm 1 mps 754 mmHg 92%
07:00 +9°C° 0 mm 1 mps 754 mmHg 87%
08:00 +9°C° 0 mm 1 mps 754 mmHg 83%
09:00 +10°C° 0 mm 1 mps 755 mmHg 79%
10:00 +11°C° 0.1 mm 1 mps 755 mmHg 74%
11:00 +12°C° 0.1 mm 1 mps 755 mmHg 70%
12:00 +12°C° 0.1 mm 1 mps 755 mmHg 66%
13:00 +12°C° 0.2 mm 2 mps 755 mmHg 66%
14:00 +13°C° 0.2 mm 2 mps 755 mmHg 66%
15:00 +12°C° 0.2 mm 3 mps 755 mmHg 66%
16:00 +11°C° 0.3 mm 3 mps 755 mmHg 70%
17:00 +11°C° 0.3 mm 3 mps 755 mmHg 74%
18:00 +10°C° 0.3 mm 3 mps 755 mmHg 79%
19:00 +10°C° 0.2 mm 3 mps 755 mmHg 81%
20:00 +9°C° 0.2 mm 3 mps 756 mmHg 84%
21:00 +8°C° 0.2 mm 3 mps 756 mmHg 87%
22:00 +8°C° 0.1 mm 3 mps 756 mmHg 88%
23:00 +8°C° 0.1 mm 3 mps 756 mmHg 90%

Day after tomorrow, 19 April, Monday

Time Temperature Precipitation Wind Pressure Humidity
00:00 +7°C° 0.1 mm 3 mps 756 mmHg 91%
01:00 +7°C° 0 mm 3 mps 756 mmHg 92%
02:00 +7°C° 0 mm 3 mps 756 mmHg 92%
03:00 +7°C° 0 mm 3 mps 756 mmHg 93%
04:00 +7°C° 0.1 mm 3 mps 756 mmHg 93%
05:00 +5°C° 0.1 mm 4 mps 756 mmHg 92%
06:00 +5°C° 0.1 mm 4 mps 756 mmHg 92%
07:00 +6°C° 0.1 mm 4 mps 756 mmHg 88%
08:00 +7°C° 0.1 mm 5 mps 756 mmHg 85%
09:00 +7°C° 0.1 mm 5 mps 756 mmHg 81%
10:00 +8°C° 0 mm 5 mps 756 mmHg 78%
11:00 +9°C° 0 mm 5 mps 756 mmHg 76%
12:00 +9°C° 0 mm 6 mps 756 mmHg 73%
13:00 +8°C° 0.1 mm 6 mps 756 mmHg 77%
14:00 +6°C° 0.1 mm 7 mps 756 mmHg 81%
15:00 +5°C° 0.1 mm 7 mps 756 mmHg 85%
16:00 +5°C° 0.1 mm 7 mps 757 mmHg 86%
17:00 +4°C° 0.1 mm 7 mps 757 mmHg 86%
18:00 +4°C° 0.1 mm 7 mps 757 mmHg 87%
19:00 +4°C° 0 mm 7 mps 757 mmHg 86%
20:00 +3°C° 0 mm 7 mps 757 mmHg 86%
21:00 +3°C° 0 mm 7 mps 757 mmHg 86%
22:00 +3°C° 0 mm 6 mps 757 mmHg 86%
23:00 +3°C° 0 mm 6 mps 756 mmHg 86%

20 April, Tuesday

Time Temperature Precipitation Wind Pressure Humidity
00:00 +3°C° 0 mm 6 mps 756 mmHg 85%
01:00 +3°C° 0 mm 6 mps 756 mmHg 86%
02:00 +3°C° 0 mm 6 mps 756 mmHg 86%
03:00 +3°C° 0 mm 7 mps 755 mmHg 86%
04:00 +3°C° 0.1 mm 7 mps 755 mmHg 86%
05:00 +3°C° 0.1 mm 7 mps 754 mmHg 87%
06:00 +3°C° 0.1 mm 7 mps 754 mmHg 87%
07:00 +2°C° 0.5 mm 8 mps 754 mmHg 87%
08:00 +2°C° 0.5 mm 8 mps 754 mmHg 87%
09:00 +2°C° 0.5 mm 8 mps 753 mmHg 87%
10:00 +3°C° 0.5 mm 9 mps 753 mmHg 86%
11:00 +3°C° 0.5 mm 9 mps 753 mmHg 86%
12:00 +3°C° 0.5 mm 9 mps 752 mmHg 86%
13:00 +3°C° 1.1 mm 9 mps 751 mmHg 86%
14:00 +3°C° 1.1 mm 10 mps 751 mmHg 87%
15:00 +3°C° 1.1 mm 11 mps 750 mmHg 87%
16:00 +4°C° 3.3 mm 11 mps 749 mmHg 88%
17:00 +4°C° 3.3 mm 12 mps 748 mmHg 89%
18:00 +4°C° 3.3 mm 12 mps 747 mmHg 90%
19:00 +4°C° 1.9 mm 12 mps 747 mmHg 90%
20:00 +5°C° 1.9 mm 12 mps 746 mmHg 89%
21:00 +5°C° 1.9 mm 12 mps 745 mmHg 89%
22:00 +5°C° 0.3 mm 12 mps 745 mmHg 88%
23:00 +7°C° 0.3 mm 11 mps 744 mmHg 88%

21 April, Wednesday

Time Temperature Precipitation Wind Pressure Humidity
00:00 +7°C° 0.3 mm 11 mps 744 mmHg 88%
01:00 +7°C° 0.2 mm 11 mps 743 mmHg 89%
02:00 +8°C° 0.2 mm 11 mps 743 mmHg 90%
03:00 +8°C° 0.2 mm 10 mps 742 mmHg 90%
04:00 +8°C° 0.6 mm 11 mps 742 mmHg 88%
05:00 +8°C° 0.6 mm 11 mps 742 mmHg 86%
06:00 +8°C° 0.6 mm 11 mps 742 mmHg 83%
07:00 +7°C° 0.2 mm 11 mps 742 mmHg 84%
08:00 +7°C° 0.2 mm 11 mps 743 mmHg 84%
09:00 +7°C° 0.2 mm 11 mps 743 mmHg 85%
10:00 +6°C° 0.1 mm 11 mps 744 mmHg 84%
11:00 +6°C° 0.1 mm 11 mps 745 mmHg 82%
12:00 +6°C° 0.1 mm 10 mps 746 mmHg 81%
13:00 +6°C° 0 mm 10 mps 746 mmHg 80%
14:00 +6°C° 0 mm 9 mps 747 mmHg 79%
15:00 +6°C° 0 mm 9 mps 748 mmHg 78%
16:00 +6°C° 0 mm 8 mps 749 mmHg 79%
17:00 +6°C° 0 mm 8 mps 750 mmHg 79%
18:00 +5°C° 0 mm 7 mps 750 mmHg 80%
19:00 +5°C° 0 mm 7 mps 751 mmHg 80%
20:00 +5°C° 0 mm 7 mps 752 mmHg 80%
21:00 +5°C° 0 mm 7 mps 752 mmHg 80%
22:00 +5°C° 0 mm 6 mps 753 mmHg 82%
23:00 +6°C° 0 mm 5 mps 753 mmHg 84%

22 April, Thursday

Time Temperature Precipitation Wind Pressure Humidity
00:00 +6°C° 0 mm 4 mps 753 mmHg 85%
01:00 +6°C° 0 mm 4 mps 754 mmHg 86%
02:00 +7°C° 0 mm 3 mps 754 mmHg 88%
03:00 +5°C° 0 mm 3 mps 754 mmHg 89%
04:00 +7°C° 0 mm 3 mps 755 mmHg 88%
05:00 +7°C° 0 mm 3 mps 755 mmHg 87%
06:00 +7°C° 0 mm 3 mps 755 mmHg 86%
07:00 +8°C° 0 mm 3 mps 756 mmHg 81%
08:00 +9°C° 0 mm 3 mps 756 mmHg 76%
09:00 +10°C° 0 mm 3 mps 757 mmHg 71%
10:00 +11°C° 0 mm 3 mps 757 mmHg 63%
11:00 +12°C° 0 mm 3 mps 757 mmHg 56%
12:00 +13°C° 0 mm 4 mps 757 mmHg 48%
13:00 +13°C° 0 mm 3 mps 757 mmHg 48%
14:00 +13°C° 0 mm 3 mps 757 mmHg 47%
15:00 +14°C° 0 mm 3 mps 757 mmHg 47%
16:00 +14°C° 0 mm 2 mps 757 mmHg 51%
17:00 +14°C° 0 mm 2 mps 757 mmHg 56%
18:00 +14°C° 0 mm 2 mps 757 mmHg 61%
19:00 +13°C° 0 mm 2 mps 757 mmHg 64%
20:00 +10°C° 0 mm 2 mps 757 mmHg 67%
21:00 +9°C° 0 mm 2 mps 757 mmHg 70%
22:00 +9°C° 0 mm 2 mps 757 mmHg 71%
23:00 +10°C° 0 mm 1 mps 757 mmHg 72%
Show more

We Need Your Consent

Meteoprog and our Service Providers may store and access personal data such as cookies, device identifiers or other similar technologies on your device and process such data to personalise content and ads, as well as provide social media features and to analyse the traffic.

  • Store and/or access information on your device

    Cookies, device identifiers or other information can be stored or accessed on your device for the purposes indicated above.

  • Personalised ads and content, ad and content measurement, audience insights, and products development

    Ads and content can be personalised based on a profile. More data can be added to better personalise ads and content. Ad and content performance can be measured. Insights about the audience who saw the ads and content can be derived. Such data can be used to develop or improve user’s experience, systems and software.

By clicking ‘I Agree’ you will allow the use of indicated cookies, device identifiers, web beacons or other similar technologies. Your settings can be changed in the browser on your device.

For certain purposes, legitimate interests may be relied on, rather than consent. You can read more about this in our Privacy and Cookie Policy.